www.pogodaiklimat.ru

Погода и климат >> Архив погоды >> Россия >> Чувашия >> Чебоксары


АРХИВ ПОГОДЫ в Чебоксарах

Время (UTC), дата Ветер
(напр.,м/с)
 
Видим.   Явления Облачность Т
(С)
Тd
(С)
f
(%)
Тe
(С)
Тes
(С)
Комфортность P
(гПа)
Po
(гПа)
Тmin
(С)
Tmax
(С)
R
(мм)
R24
(мм)
S
(см)
21 15.09 В 2-2
{4}
10 км ясно +11.2 +6.2 71 +10 +10 по сезону 1021.2 1001.6
00 16.09 ЮВ 3-4
{4}
10 км 4/0
[Ac trans]
+10.4 +5.6 72 +8 +8 по сезону 1020.9 1001.2
03 16.09 ЮВ 2-2
{4}
10 км 9/4 1000 м
[Sc Ac trans]
+10.9 +6.8 76 +10 +10 по сезону 1019.5 999.8 +9.4
06 16.09 ЮВ 4-6
{7}
10 км 8/3 1000 м
[Cb calv Ac trans]
+16.3 +7.6 56 +16 +17 тепло 1017.2 997.8
09 16.09 ЮВ 7-9
{11}
10 км 3/0
[Ci fib]
+22.6 +6.1 34 +23 +25 комфорт 1014.8 995.9
12 16.09 ЮВ 6-10
{11}
10 км 3/0
[Ci fib]
+24.7 +6.4 31 +25 +26 комфорт 1012.5 993.8
15 16.09 ЮВ 4-6
{10}
10 км 8/3 1000 м
[Sc Ac trans]
+20.0 +9.0 49 +21 +21 комфорт 1011.1 992.1 +24.8
18 16.09 ЮВ 3-5
{7}
10 км 4/0
[Ac trans]
+18.0 +8.5 54 +18 +18 тепло 1009.8 990.7
21 16.09 Ю 3-5
{5}
10 км 3/0
[Ac trans]
+14.3 +3.8 49 +14 +14 тепло 1008.6 989.2
00 17.09 СВ 1-1
{5}
10 км 6/0
[Ac trans]
+12.3 +3.2 54 +13 +13 тепло 1006.6 987.1
03 17.09 Ю 3-4
{7}
10 км слабый ливневой дождь 9/6 300 м
[Cb cap]
+12.5 +7.8 73 +11 +11 по сезону 1006.1 986.8 +12.3 0.3
06 17.09 З 1-1
{6}
4000 м слабый ливневой дождь 10/10 300 м
[Cb cap]
+12.1 +10.7 91 +12 +12 по сезону 1006.4 987.1 +11.5
09 17.09 З 2-5
{5}
10 км {ливн. осадки} 8/4 300 м
[Sc Ac trans Ci fib]
+16.1 +11.7 75 +16 +19 тепло 1007.0 987.9
12 17.09 С 6-10
{13}
10 км в посл. час ливневой дождь 9/8 300 м
[Cb calv Ac trans Ci sp]
+12.6 +9.9 84 +10 +10 прохладно 1010.8 991.4
15 17.09 С 3-5
{10}
10 км 8/3 1000 м
[Cb calv Ac trans Ci sp]
+13.4 +8.6 73 +12 +12 по сезону 1012.5 993.0 +16.7 7
18 17.09 С 4-6
{9}
10 км 6/0
[Ac trans Ci sp]
+10.2 +5.1 71 +8 +8 по сезону 1014.9 995.2
21 17.09 С 2-3
{6}
10 км ясно +6.9 +3.9 81 +5 +5 прохладно 1015.4 995.5
00 18.09 С 1-2
{3}
10 км ясно +6.7 +4.4 85 +6 +6 по сезону 1014.9 995.0
03 18.09 СЗ 2-2
{3}
10 км 3/0
[Ac trans Ci fib]
+5.9 +4.3 89 +3 +3 холодно 1014.5 994.5 +4.8
06 18.09 В 1-2
{3}
10 км 4/3 300 м
[Sc Ac trans]
+11.6 +5.6 67 +12 +14 тепло 1013.9 994.2
09 18.09 СЗ 2-5
{5}
10 км 6/3 600 м
[Sc Ac trans Ci fib]
+14.9 +2.9 44 +15 +19 тепло 1012.1 992.7
12 18.09 З 3-4
{7}
10 км 8/4 1000 м
[Cb calv Ac trans]
+14.0 +3.4 49 +13 +14 по сезону 1010.1 990.7
15 18.09 З 2-3
{6}
10 км 8/6 1000 м
[Cb calv Ac trans]
+12.7 +6.1 64 +12 +12 по сезону 1008.6 989.2 +16.0
18 18.09 З 5-8
{11}
10 км {ливн. осадки} 10/8 300 м
[Cb calv As op]
+11.1 +8.2 82 +8 +8 по сезону 1008.2 988.6
21 18.09 СЗ 6 10 км 10/8 300 м
[Cb calv As op]
+11.0 +7.7 80 +8 +8 по сезону 1006.7 987.1
00 19.09 СЗ 6-11
{12}
10 км 8/6 300 м
[Cb calv Ac trans]
+10.0 +6.4 78 +7 +7 по сезону 1006.4 986.8
03 19.09 СЗ 6-12
{14}
10 км слабый ливневой дождь 8/8 600 м
[Cb cap]
+8.7 +6.1 84 +5 +5 прохладно 1007.2 987.5 +8.7 0.3
06 19.09 СЗ 7-12
{14}
10 км слабый ливневой дождь 9/9 300 м
[Cb cap]
+9.0 +5.5 79 +5 +5 прохладно 1007.4 987.7
09 19.09 СЗ 8-12
{14}
10 км {ливн. осадки} 8/4 600 м
[Cb calv Ac trans]
+12.2 +4.3 58 +9 +10 по сезону 1008.0 988.5
12 19.09 СЗ 8-12
{15}
10 км {ливн. осадки} 8/4 600 м
[Cb calv Ac trans]
+12.6 +2.5 50 +10 +10 прохладно 1009.0 989.5
15 19.09 СЗ 4-6
{13}
10 км 8/3 1000 м
[Sc Ac trans]
+11.1 +2.5 55 +9 +9 по сезону 1010.1 990.5 +14.1 0.0
18 19.09 СЗ 3-5
{7}
10 км 8/0
[Ac trans]
+9.8 +3.6 65 +8 +8 по сезону 1011.3 991.6
21 19.09 СЗ 2-4
{6}
10 км 3/0
[Ac trans]
+8.3 +4.6 77 +7 +7 по сезону 1011.4 991.6
00 20.09 СЗ 2-3
{4}
10 км ясно +7.3 +5.0 85 +5 +5 по сезону 1011.8 992.0
03 20.09 СЗ 2-3
{4}
10 км 8/0
[Ac trans]
+8.5 +5.9 84 +7 +7 по сезону 1011.9 992.2 +6.5
06 20.09 З 3-3
{3}
10 км 8/0
[Ac trans Cc]
+11.8 +8.2 79 +10 +12 по сезону 1012.1 992.5
09 20.09 З 3-5
{5}
10 км 9/9 600 м
[Sc]
+13.3 +7.8 69 +12 +13 по сезону 1011.6 992.1
12 20.09 Ю 4-5
{5}
10 км 9/6 1000 м
[Sc Ac trans]
+14.0 +9.5 74 +13 +13 по сезону 1010.2 990.9
15 20.09 Ю 1-2
{6}
10 км 10/8 1000 м
[Sc As op]
+13.2 +9.9 80 +13 +13 тепло 1010.4 991.0 +14.3
18 20.09 С 3-4
{4}
10 км в посл. час дождь 10/8 300 м
[Sc As op]
+13.3 +11.2 87 +12 +12 тепло 1010.5 991.2
21 20.09 СЗ 4-5
{6}
10 км 10/8 300 м
[Sc As op]
+13.4 +11.0 85 +12 +12 тепло 1011.1 991.7
00 21.09 С 3-4
{6}
10 км 10/8 300 м
[Sc As op]
+13.3 +11.4 88 +12 +12 тепло 1012.0 992.5
03 21.09 СЗ 2-4
{4}
4000 м дымка {дождь} 10/10 200 м
[Sc]
+13.6 +12.3 92 +13 +13 тепло 1013.0 993.6 +12.8 0.0
06 21.09 СЗ 3-6
{6}
4000 м слабая морось {дождь} 10/10 100 м
[St]
+14.4 +13.1 92 +13 +13 тепло 1015.6 996.2
09 21.09 СЗ 5-8
{8}
10 км {морось} 6/4 300 м
[Sc Ac trans]
+17.7 +11.9 69 +17 +19 тепло 1016.1 997.0
12 21.09 СЗ 4-6
{8}
10 км {морось} 6/0
[Ac trans Ci fib]
+18.0 +12.0 68 +18 +19 тепло 1016.9 997.7
15 21.09 З 2-2
{6}
10 км 5/0
[Ci]
+15.2 +11.3 78 +15 +15 тепло 1017.7 998.2 +19.1 0.0
18 21.09 ЮЗ 3-4
{4}
10 км 3/0
[Ci fib]
+13.4 +11.0 85 +12 +12 тепло 1018.3 998.7
21 21.09 З 3-3
{4}
10 км ясно +13.4 +11.3 87 +12 +12 тепло 1018.8 999.2
00 22.09 З 3-4
{5}
10 км 3/0
[Ci fib]
+15.5 +11.8 79 +15 +15 тепло 1019.2 999.9
03 22.09 З 4-4
{5}
10 км 5/0
[Ac trans Ci]
+13.1 +10.9 86 +11 +11 тепло 1019.6 1000.0 +13.0
06 22.09 З 3-4
{6}
10 км 6/0
[Ac trans Ci fib]
+17.9 +12.7 72 +18 +20 тепло 1019.3 1000.1 +12.9
09 22.09 З 5-8
{8}
10 км 4/0
[Ac trans Ci fib]
+23.8 +11.7 47 +25 +28 комфорт 1018.8 1000.0
12 22.09 З 4-6
{9}
10 км 3/0
[Ci fib]
+24.2 +11.0 43 +25 +27 комфорт 1018.4 999.6
15 22.09 ЮЗ 2-2
{7}
10 км 3/0
[Ci fib]
+19.3 +10.4 56 +21 +21 комфорт 1018.3 999.1 +24.5
18 22.09 ЮЗ 4-5
{5}
10 км ясно +15.5 +10.2 71 +15 +15 тепло 1018.2 998.8

 

Местоположение метеостанции Чебоксары (Чувашия, Россия): широта 56.08 долгота 47.33 высота над уровнем моря 163 м.

В архиве по умолчанию представлена погода в Чебоксарах за последнюю неделю. Архивные данные за месяц целиком и за предыдущие месяцы, начиная с января 2011 года, Вы можете получить, выбрав интересующий диапазон дат из раскрывающегося списка и нажав кнопку "Ввод!".


*Определитесь, кто Вы:
робот инопланетянин человек

Внимание! Время в таблицах - всемирное. Для получения местного времени необходимо прибавить поправку, которая в Чебоксарах равна 3 ч.

Смотрите также архив погоды в соседних городах и на ближайших метеорологических станциях:

Погода в Козьмодемьянске (Марий-Эл, Россия) (54 км)
Погода в Канаше (Чувашия, Россия) (63 км)
Погода в Йошкар-Оле (Марий-Эл, Россия) (67 км)
Погода в Вязовых (Татарстан, Россия) (80 км)
Погода в Больших Кайбицах (Татарстан, Россия) (92 км)
Погода в Санчурске (Кировская область, Россия) (100 км)
Погода в Морках (Марий-Эл, Россия) (111 км)
Погода в Батырево (Чувашия, Россия) (114 км)
Погода в Порецком (Чувашия, Россия) (118 км)
Погода в Казани (Татарстан, Россия) (123 км)

Пояснения к столбцам:

Ветер - указаны скорость ветра в м/с - средняя за 10 мин, порывы в срок и между сроками (в фигурных скобках) и направление, откуда дует ветер: С - северный, СВ - северо-восточный, В - восточный, ЮВ - юго-восточный, Ю - южный, ЮЗ - юго-западный, З - западный, СЗ - северо-западный.
Видимость - горизонтальная дальность видимости в метрах или километрах. При видимости от 1 до 10 км при отсутствии осадков обычно наблюдается дымка, при ухудшении видимости до 1 км и менее - туман. В сухую погоду видимость может ухудшаться дымом, пылью или мглою.
Явления - указаны атмосферные явления, наблюдавшиеся в срок или в последний час перед сроком; фигурными скобками обозначены явления, наблюдавшиеся между сроками (за 1-3 часа до срока); квадратными скобками обозначены град или гололедные отложения с указанием их диаметра в мм.
Облачность - указаны через наклонную черту общая и нижняя облачность в баллах и высота нижней границы облаков в метрах; квадратными скобками обозначены формы облаков: Ci - перистые, Cs - перисто-слоистые, Cc - перисто-кучевые, Ac - высококучевые, As - высокослоистые, Sc - слоисто-кучевые, Ns - слоисто-дождевые, Cu - кучевые, Cb - кучево-дождевые. Подробнее классификацию облаков см. в Атласе облаков (PDF).
T - Температура воздуха - температура, измеренная на высоте 2 м над землей.
Td - Температура точки росы - температура, при понижении до которой содержащийся в воздухе водяной пар достигнет насыщения.
f - Относительная влажность воздуха - влажноcть воздуха, измеренная на высоте 2 м над землей.
Te - Эффективная температура - температура, которую ощущает одетый по сезону человек в тени. Характеристика душности погоды. При расчете учитывается влияние влажности воздуха и скорости ветра на теплоощущения человека.
Tes - Эффективная температура на солнце - температура, которую ощущает человек, с поправкой на солнечный нагрев. Характеристика знойности погоды. Зависит от высоты солнца над горизонтом, облачности и скорости ветра. Ночью, в пасмурную погоду, а также при ветре 12 м/с и более поправка равна нулю.
P - Атмосферное давление - приведенное к уровню моря атмосферное давление.
Po - Атмосферное давление - измеренное на уровне метеостанции атмосферное давление.
Tmin - Минимальная температура - минимум температуры воздуха на высоте 2 м над землей.
Tmax - Максимальная температура - максимум температуры воздуха на высоте 2 м над землей.
R - Количество осадков - Количество выпавших осадков за период времени, мм. При наведении курсора мыши на число - период времени, за который выпало указанное количество осадков.
R24 - Количество осадков - Количество выпавших осадков за 24 часа, мм.
S - Снежный покров - Высота снежного покрова, см. При наведении курсора мыши на число - состояние снежного покрова и степень покрытия местности в баллах.